Time,TemperatureF,DewpointF,PressureIn,WindDirection,WindDirectionDegrees,WindSpeedMPH,WindSpeedGustMPH,Humidity,HourlyPrecipIn,Conditions,Clouds,dailyrainin,SoftwareType,DateUTC
2013-10-23 00:01:00,56.7,34.4,29.83,NW,314,0.0,4.1,43,0.00,,---,0.00,VWS V14.01,2013-10-23 04:01:00,
2013-10-23 00:02:00,56.5,34.3,29.83,NW,315,0.0,3.1,43,0.00,,---,0.00,VWS V14.01,2013-10-23 04:02:00,
2013-10-23 00:03:00,56.5,34.3,29.83,NNW,337,0.0,4.1,43,0.00,,---,0.00,VWS V14.01,2013-10-23 04:03:00,
2013-10-23 00:04:00,56.5,34.3,29.83,NW,307,0.0,3.1,43,0.00,,---,0.00,VWS V14.01,2013-10-23 04:04:00,
2013-10-23 00:07:00,56.3,34.1,29.83,NW,320,5.7,5.7,43,0.00,,---,0.00,VWS V14.01,2013-10-23 04:07:00,
2013-10-23 00:09:00,56.1,34.0,29.83,North,353,2.6,4.1,43,0.00,,---,0.00,VWS V14.01,2013-10-23 04:09:00,
2013-10-23 00:15:00,55.8,33.0,29.83,NW,315,0.0,4.1,42,0.00,,---,0.00,VWS V14.01,2013-10-23 04:15:00,
2013-10-23 00:20:00,55.6,32.9,29.83,NW,312,3.1,3.1,42,0.00,,---,0.00,VWS V14.01,2013-10-23 04:20:00,
2013-10-23 00:26:00,55.4,32.1,29.83,WNW,295,6.2,6.2,41,0.00,,---,0.00,VWS V14.01,2013-10-23 04:26:00,
2013-10-23 00:31:00,55.4,32.1,29.83,NW,313,7.2,7.2,41,0.00,,---,0.00,VWS V14.01,2013-10-23 04:31:00,
2013-10-23 00:37:00,55.2,31.3,29.83,NW,317,4.1,4.1,40,0.00,,---,0.00,VWS V14.01,2013-10-23 04:37:00,
2013-10-23 00:43:00,55.2,30.7,29.83,NNW,334,3.1,7.2,39,0.00,,---,0.00,VWS V14.01,2013-10-23 04:43:00,
2013-10-23 00:48:00,55.2,30.7,29.83,NNW,340,4.1,4.1,39,0.00,,---,0.00,VWS V14.01,2013-10-23 04:48:00,
2013-10-23 00:54:00,55.0,29.9,29.83,WNW,284,3.6,4.6,38,0.00,,---,0.00,VWS V14.01,2013-10-23 04:54:00,
2013-10-23 01:00:00,54.9,29.8,29.83,NW,305,2.6,4.6,38,0.00,,---,0.00,VWS V14.01,2013-10-23 05:00:00,
2013-10-23 01:05:00,54.5,29.4,29.83,NW,326,3.6,4.1,38,0.00,,---,0.00,VWS V14.01,2013-10-23 05:05:00,
2013-10-23 01:11:00,54.5,29.4,29.83,WNW,302,3.6,4.1,38,0.00,,---,0.00,VWS V14.01,2013-10-23 05:11:00,
2013-10-23 01:16:00,54.3,29.3,29.83,NW,314,0.0,6.2,38,0.00,,---,0.00,VWS V14.01,2013-10-23 05:16:00,
2013-10-23 01:22:00,54.3,29.3,29.83,WNW,295,4.6,6.7,38,0.00,,---,0.00,VWS V14.01,2013-10-23 05:22:00,
2013-10-23 01:28:00,54.1,29.1,29.83,WNW,294,4.1,4.1,38,0.00,,---,0.00,VWS V14.01,2013-10-23 05:28:00,
2013-10-23 01:33:00,53.8,28.8,29.83,NW,310,3.6,3.6,38,0.00,,---,0.00,VWS V14.01,2013-10-23 05:33:00,
2013-10-23 01:39:00,53.6,28.6,29.85,NW,325,3.1,5.7,38,0.00,,---,0.00,VWS V14.01,2013-10-23 05:39:00,
2013-10-23 01:45:00,53.8,29.4,29.85,WNW,292,5.7,5.7,39,0.00,,---,0.00,VWS V14.01,2013-10-23 05:45:00,
2013-10-23 01:50:00,53.8,29.4,29.83,WNW,289,3.6,6.7,39,0.00,,---,0.00,VWS V14.01,2013-10-23 05:50:00,
2013-10-23 01:56:00,53.8,30.0,29.83,WNW,294,5.7,5.7,40,0.00,,---,0.00,VWS V14.01,2013-10-23 05:56:00,
2013-10-23 02:01:00,53.4,29.7,29.83,WNW,287,4.6,5.7,40,0.00,,---,0.00,VWS V14.01,2013-10-23 06:01:00,
2013-10-23 02:06:00,53.4,29.7,29.83,NNW,338,3.6,7.2,40,0.00,,---,0.00,VWS V14.01,2013-10-23 06:06:00,
2013-10-23 02:11:00,53.6,29.3,29.83,NW,305,4.6,6.2,39,0.00,,---,0.00,VWS V14.01,2013-10-23 06:11:00,
2013-10-23 02:17:00,53.6,29.3,29.83,NW,306,5.1,6.2,39,0.00,,---,0.00,VWS V14.01,2013-10-23 06:17:00,
2013-10-23 02:22:00,53.4,29.1,29.83,NW,312,3.6,5.7,39,0.00,,---,0.00,VWS V14.01,2013-10-23 06:22:00,
2013-10-23 02:28:00,53.1,28.8,29.83,North,353,3.6,4.6,39,0.00,,---,0.00,VWS V14.01,2013-10-23 06:28:00,
2013-10-23 02:33:00,53.1,28.8,29.83,WNW,302,4.6,4.6,39,0.00,,---,0.00,VWS V14.01,2013-10-23 06:33:00,
2013-10-23 02:39:00,52.7,28.5,29.83,NW,325,4.6,4.6,39,0.00,,---,0.00,VWS V14.01,2013-10-23 06:39:00,
2013-10-23 02:44:00,52.7,28.5,29.83,WNW,284,4.6,6.2,39,0.00,,---,0.00,VWS V14.01,2013-10-23 06:44:00,
2013-10-23 02:50:00,52.7,28.5,29.83,WNW,288,6.7,7.2,39,0.00,,---,0.00,VWS V14.01,2013-10-23 06:50:00,
2013-10-23 02:56:00,52.5,28.3,29.83,NW,308,2.6,4.1,39,0.00,,---,0.00,VWS V14.01,2013-10-23 06:56:00,
2013-10-23 03:01:00,52.5,27.0,29.83,NNW,329,3.1,4.1,37,0.00,,---,0.00,VWS V14.01,2013-10-23 07:01:00,
2013-10-23 03:07:00,52.2,24.7,29.83,NW,304,3.6,6.2,34,0.00,,---,0.00,VWS V14.01,2013-10-23 07:07:00,
2013-10-23 03:13:00,52.0,24.5,29.83,WNW,299,0.0,6.2,34,0.00,,---,0.00,VWS V14.01,2013-10-23 07:13:00,
2013-10-23 03:18:00,51.6,23.5,29.83,NW,304,4.6,4.6,33,0.00,,---,0.00,VWS V14.01,2013-10-23 07:18:00,
2013-10-23 03:24:00,51.3,23.2,29.83,NW,308,3.6,3.6,33,0.00,,---,0.00,VWS V14.01,2013-10-23 07:24:00,
2013-10-23 03:29:00,51.1,23.0,29.83,WNW,286,0.0,4.1,33,0.00,,---,0.00,VWS V14.01,2013-10-23 07:29:00,
2013-10-23 03:35:00,50.9,22.8,29.83,WNW,297,3.1,4.1,33,0.00,,---,0.00,VWS V14.01,2013-10-23 07:35:00,
2013-10-23 03:41:00,50.9,22.8,29.83,NW,305,0.0,3.1,33,0.00,,---,0.00,VWS V14.01,2013-10-23 07:41:00,
2013-10-23 03:46:00,50.9,24.2,29.83,NW,308,3.1,4.1,35,0.00,,---,0.00,VWS V14.01,2013-10-23 07:46:00,
2013-10-23 03:52:00,50.7,24.1,29.83,NW,308,0.0,0.0,35,0.00,,---,0.00,VWS V14.01,2013-10-23 07:52:00,
2013-10-23 03:57:00,50.5,23.9,29.83,NW,307,0.0,0.0,35,0.00,,---,0.00,VWS V14.01,2013-10-23 07:57:00,
2013-10-23 04:03:00,50.4,24.4,29.80,WNW,300,0.0,0.0,36,0.00,,---,0.00,VWS V14.01,2013-10-23 08:03:00,
2013-10-23 04:09:00,50.4,25.1,29.80,NW,307,3.1,3.1,37,0.00,,---,0.00,VWS V14.01,2013-10-23 08:09:00,
2013-10-23 04:14:00,50.2,25.6,29.80,NW,313,3.1,4.1,38,0.00,,---,0.00,VWS V14.01,2013-10-23 08:14:00,
2013-10-23 04:19:00,50.2,26.2,29.83,NW,312,2.6,5.1,39,0.00,,---,0.00,VWS V14.01,2013-10-23 08:19:00,
2013-10-23 04:24:00,50.2,26.2,29.83,WNW,299,0.0,3.6,39,0.00,,---,0.00,VWS V14.01,2013-10-23 08:24:00,
2013-10-23 04:30:00,50.2,26.8,29.83,WNW,293,3.6,3.6,40,0.00,,---,0.00,VWS V14.01,2013-10-23 08:30:00,
2013-10-23 04:35:00,50.0,26.6,29.83,NW,307,2.6,4.6,40,0.00,,---,0.00,VWS V14.01,2013-10-23 08:35:00,
2013-10-23 04:41:00,50.2,27.4,29.83,WNW,289,7.2,7.2,41,0.00,,---,0.00,VWS V14.01,2013-10-23 08:41:00,
2013-10-23 04:46:00,50.5,27.7,29.83,NW,307,3.1,6.2,41,0.00,,---,0.00,VWS V14.01,2013-10-23 08:46:00,
2013-10-23 04:51:00,51.1,28.2,29.83,WNW,303,6.7,6.7,41,0.00,,---,0.00,VWS V14.01,2013-10-23 08:51:00,
2013-10-23 04:56:00,51.3,28.4,29.83,NW,309,3.6,7.2,41,0.00,,---,0.00,VWS V14.01,2013-10-23 08:56:00,
2013-10-23 05:02:00,51.4,28.5,29.83,NNW,343,5.7,5.7,41,0.00,,---,0.00,VWS V14.01,2013-10-23 09:02:00,
2013-10-23 05:07:00,51.4,29.1,29.83,NW,313,3.6,6.7,42,0.00,,---,0.00,VWS V14.01,2013-10-23 09:07:00,
2013-10-23 05:13:00,51.6,29.3,29.83,NNW,332,4.1,6.7,42,0.00,,---,0.00,VWS V14.01,2013-10-23 09:13:00,
2013-10-23 05:19:00,52.0,30.2,29.80,NNW,342,3.1,4.6,43,0.00,,---,0.00,VWS V14.01,2013-10-23 09:19:00,
2013-10-23 05:24:00,52.0,30.2,29.80,NNW,337,4.6,7.7,43,0.00,,---,0.00,VWS V14.01,2013-10-23 09:24:00,
2013-10-23 05:30:00,51.8,29.5,29.80,WNW,303,2.6,4.1,42,0.00,,---,0.00,VWS V14.01,2013-10-23 09:30:00,
2013-10-23 05:35:00,51.4,29.1,29.80,North,353,3.6,7.7,42,0.00,,---,0.00,VWS V14.01,2013-10-23 09:35:00,
2013-10-23 05:41:00,51.3,29.0,29.80,WNW,296,0.0,0.0,42,0.00,,---,0.00,VWS V14.01,2013-10-23 09:41:00,
2013-10-23 05:47:00,50.7,28.5,29.80,WNW,296,0.0,0.0,42,0.00,,---,0.00,VWS V14.01,2013-10-23 09:47:00,
2013-10-23 05:52:00,50.5,28.3,29.80,WNW,300,0.0,0.0,42,0.00,,---,0.00,VWS V14.01,2013-10-23 09:52:00,
2013-10-23 05:57:00,50.4,28.7,29.80,North,357,0.0,0.0,43,0.00,,---,0.00,VWS V14.01,2013-10-23 09:57:00,
2013-10-23 06:02:00,50.5,28.9,29.80,NW,310,3.6,3.6,43,0.00,,---,0.00,VWS V14.01,2013-10-23 10:02:00,
2013-10-23 06:08:00,50.5,28.3,29.80,WNW,294,0.0,0.0,42,0.00,,---,0.00,VWS V14.01,2013-10-23 10:08:00,
2013-10-23 06:13:00,50.2,28.0,29.80,NW,314,0.0,0.0,42,0.00,,---,0.00,VWS V14.01,2013-10-23 10:13:00,
2013-10-23 06:19:00,50.0,27.8,29.80,NW,311,0.0,0.0,42,0.00,,---,0.00,VWS V14.01,2013-10-23 10:19:00,
2013-10-23 06:24:00,49.5,27.3,29.80,WNW,293,0.0,0.0,42,0.00,,---,0.00,VWS V14.01,2013-10-23 10:24:00,
2013-10-23 06:30:00,49.1,27.0,29.80,WSW,258,0.0,0.0,42,0.00,,---,0.00,VWS V14.01,2013-10-23 10:30:00,
2013-10-23 06:36:00,48.7,26.7,29.80,West,272,0.0,0.0,42,0.00,,---,0.00,VWS V14.01,2013-10-23 10:36:00,
2013-10-23 06:41:00,48.4,26.4,29.80,West,275,0.0,0.0,42,0.00,,---,0.00,VWS V14.01,2013-10-23 10:41:00,
2013-10-23 06:46:00,48.0,26.0,29.80,North,353,0.0,4.6,42,0.00,,---,0.00,VWS V14.01,2013-10-23 10:46:00,
2013-10-23 06:51:00,47.8,25.9,29.80,NNW,336,0.0,0.0,42,0.00,,---,0.00,VWS V14.01,2013-10-23 10:51:00,
2013-10-23 06:57:00,47.5,25.5,29.80,NNW,336,0.0,0.0,42,0.00,,---,0.00,VWS V14.01,2013-10-23 10:57:00,
2013-10-23 07:02:00,47.3,25.4,29.80,NNW,336,0.0,0.0,42,0.00,,---,0.00,VWS V14.01,2013-10-23 11:02:00,
2013-10-23 07:08:00,47.1,25.8,29.77,NW,315,0.0,0.0,43,0.00,,---,0.00,VWS V14.01,2013-10-23 11:08:00,
2013-10-23 07:13:00,46.9,25.6,29.77,NW,319,0.0,0.0,43,0.00,,---,0.00,VWS V14.01,2013-10-23 11:13:00,
2013-10-23 07:19:00,47.3,27.0,29.77,North,357,2.6,3.1,45,0.00,,---,0.00,VWS V14.01,2013-10-23 11:19:00,
2013-10-23 07:24:00,47.8,27.5,29.77,North,353,0.0,0.0,45,0.00,,---,0.00,VWS V14.01,2013-10-23 11:24:00,
2013-10-23 07:30:00,47.8,27.0,29.77,NW,313,0.0,0.0,44,0.00,,---,0.00,VWS V14.01,2013-10-23 11:30:00,
2013-10-23 07:36:00,47.8,27.5,29.77,North,353,2.6,4.6,45,0.00,,---,0.00,VWS V14.01,2013-10-23 11:36:00,
2013-10-23 07:41:00,48.4,28.0,29.77,North,357,0.0,3.6,45,0.00,,---,0.00,VWS V14.01,2013-10-23 11:41:00,
2013-10-23 07:47:00,49.1,27.6,29.77,North,353,0.0,3.1,43,0.00,,---,0.00,VWS V14.01,2013-10-23 11:47:00,
2013-10-23 07:53:00,49.5,27.3,29.77,NW,307,0.0,0.0,42,0.00,,---,0.00,VWS V14.01,2013-10-23 11:53:00,
2013-10-23 07:58:00,49.5,27.3,29.77,NW,321,0.0,3.6,42,0.00,,---,0.00,VWS V14.01,2013-10-23 11:58:00,
2013-10-23 08:04:00,49.5,27.9,29.77,NW,308,0.0,0.0,43,0.00,,---,0.00,VWS V14.01,2013-10-23 12:04:00,
2013-10-23 08:09:00,49.3,27.8,29.77,NW,308,0.0,0.0,43,0.00,,---,0.00,VWS V14.01,2013-10-23 12:09:00,
2013-10-23 08:15:00,49.1,27.6,29.77,NW,308,0.0,0.0,43,0.00,,---,0.00,VWS V14.01,2013-10-23 12:15:00,
2013-10-23 08:21:00,49.1,27.6,29.77,NW,324,0.0,0.0,43,0.00,,---,0.00,VWS V14.01,2013-10-23 12:21:00,
2013-10-23 08:26:00,49.6,28.6,29.77,WNW,288,0.0,0.0,44,0.00,,---,0.00,VWS V14.01,2013-10-23 12:26:00,
2013-10-23 08:32:00,50.5,29.5,29.77,NW,324,0.0,0.0,44,0.00,,---,0.00,VWS V14.01,2013-10-23 12:32:00,
2013-10-23 08:37:00,50.9,29.2,29.77,NNE,21,3.6,6.2,43,0.00,,---,0.00,VWS V14.01,2013-10-23 12:37:00,
2013-10-23 08:43:00,51.8,28.3,29.77,NNE,28,4.1,4.6,40,0.00,,---,0.00,VWS V14.01,2013-10-23 12:43:00,
2013-10-23 08:49:00,52.3,26.9,29.77,NNE,13,3.1,3.1,37,0.00,,---,0.00,VWS V14.01,2013-10-23 12:49:00,
2013-10-23 08:54:00,52.5,25.0,29.77,North,2,3.6,4.6,34,0.00,,---,0.00,VWS V14.01,2013-10-23 12:54:00,
2013-10-23 08:59:00,53.1,24.0,29.77,North,10,3.1,4.1,32,0.00,,---,0.00,VWS V14.01,2013-10-23 12:59:00,
2013-10-23 09:04:00,53.2,23.4,29.77,North,353,2.6,3.6,31,0.00,,---,0.00,VWS V14.01,2013-10-23 13:04:00,
2013-10-23 09:09:00,53.6,22.9,29.77,NNE,23,0.0,3.1,30,0.00,,---,0.00,VWS V14.01,2013-10-23 13:09:00,
2013-10-23 09:15:00,54.3,23.6,29.77,North,353,0.0,3.6,30,0.00,,---,0.00,VWS V14.01,2013-10-23 13:15:00,
2013-10-23 09:21:00,54.5,23.7,29.77,NNE,15,0.0,0.0,30,0.00,,---,0.00,VWS V14.01,2013-10-23 13:21:00,
2013-10-23 09:26:00,55.4,23.7,29.77,NW,324,4.1,4.1,29,0.00,,---,0.00,VWS V14.01,2013-10-23 13:26:00,
2013-10-23 09:31:00,56.5,24.6,29.77,NNW,341,4.6,5.7,29,0.00,,---,0.00,VWS V14.01,2013-10-23 13:31:00,
2013-10-23 09:36:00,57.0,24.3,29.77,North,353,7.2,7.2,28,0.00,,---,0.00,VWS V14.01,2013-10-23 13:36:00,
2013-10-23 09:42:00,57.2,23.5,29.77,NNE,15,2.6,4.1,27,0.00,,---,0.00,VWS V14.01,2013-10-23 13:42:00,
2013-10-23 09:47:00,57.4,21.9,29.77,North,353,0.0,0.0,25,0.00,,---,0.00,VWS V14.01,2013-10-23 13:47:00,
2013-10-23 09:52:00,57.4,18.9,29.77,North,353,4.1,4.6,22,0.00,,---,0.00,VWS V14.01,2013-10-23 13:52:00,
2013-10-23 09:57:00,57.4,18.9,29.77,North,353,3.1,4.1,22,0.00,,---,0.00,VWS V14.01,2013-10-23 13:57:00,
2013-10-23 10:03:00,57.4,18.9,29.77,North,7,2.6,4.1,22,0.00,,---,0.00,VWS V14.01,2013-10-23 14:03:00,
2013-10-23 10:08:00,57.2,18.7,29.77,North,1,3.1,3.1,22,0.00,,---,0.00,VWS V14.01,2013-10-23 14:08:00,
2013-10-23 10:14:00,57.4,18.9,29.77,NNE,31,0.0,4.1,22,0.00,,---,0.00,VWS V14.01,2013-10-23 14:14:00,
2013-10-23 10:20:00,57.4,18.9,29.74,NNE,26,0.0,3.6,22,0.00,,---,0.00,VWS V14.01,2013-10-23 14:20:00,
2013-10-23 10:25:00,57.6,19.0,29.74,NNE,17,2.6,2.6,22,0.00,,---,0.00,VWS V14.01,2013-10-23 14:25:00,
2013-10-23 10:31:00,57.9,19.3,29.74,NE,38,0.0,2.6,22,0.00,,---,0.00,VWS V14.01,2013-10-23 14:31:00,
2013-10-23 10:36:00,58.3,19.6,29.74,ENE,66,0.0,0.0,22,0.00,,---,0.00,VWS V14.01,2013-10-23 14:36:00,
2013-10-23 10:42:00,58.6,19.9,29.74,NNE,18,0.0,0.0,22,0.00,,---,0.00,VWS V14.01,2013-10-23 14:42:00,
2013-10-23 10:48:00,58.8,20.1,29.74,NNE,18,4.1,6.2,22,0.00,,---,0.00,VWS V14.01,2013-10-23 14:48:00,
2013-10-23 10:53:00,58.8,20.1,29.74,ENE,57,0.0,0.0,22,0.00,,---,0.00,VWS V14.01,2013-10-23 14:53:00,
2013-10-23 10:58:00,58.8,17.9,29.74,North,8,0.0,2.6,20,0.00,,---,0.00,VWS V14.01,2013-10-23 14:58:00,
2013-10-23 11:03:00,58.8,20.1,29.74,North,9,2.6,5.7,22,0.00,,---,0.00,VWS V14.01,2013-10-23 15:03:00,
2013-10-23 11:09:00,58.8,17.9,29.74,North,7,2.6,4.6,20,0.00,,---,0.00,VWS V14.01,2013-10-23 15:09:00,
2013-10-23 11:14:00,58.8,17.9,29.74,NNW,338,5.7,5.7,20,0.00,,---,0.00,VWS V14.01,2013-10-23 15:14:00,
2013-10-23 11:20:00,58.6,17.7,29.74,NNE,12,4.1,4.1,20,0.00,,---,0.00,VWS V14.01,2013-10-23 15:20:00,
2013-10-23 11:25:00,58.5,17.6,29.74,NNW,329,0.0,3.1,20,0.00,,---,0.00,VWS V14.01,2013-10-23 15:25:00,
2013-10-23 11:31:00,58.5,19.8,29.74,North,357,3.1,4.6,22,0.00,,---,0.00,VWS V14.01,2013-10-23 15:31:00,
2013-10-23 11:36:00,58.3,19.6,29.74,NNW,336,3.6,3.6,22,0.00,,---,0.00,VWS V14.01,2013-10-23 15:36:00,
2013-10-23 11:42:00,58.3,17.4,29.74,NNW,331,0.0,4.1,20,0.00,,---,0.00,VWS V14.01,2013-10-23 15:42:00,
2013-10-23 11:48:00,58.3,19.6,29.74,NNE,17,0.0,0.0,22,0.00,,---,0.00,VWS V14.01,2013-10-23 15:48:00,
2013-10-23 11:53:00,58.3,17.4,29.71,North,0,0.0,0.0,20,0.00,,---,0.00,VWS V14.01,2013-10-23 15:53:00,
2013-10-23 11:59:00,58.3,19.6,29.71,WNW,302,0.0,0.0,22,0.00,,---,0.00,VWS V14.01,2013-10-23 15:59:00,
2013-10-23 12:04:00,58.3,19.6,29.71,NNE,29,0.0,0.0,22,0.00,,---,0.00,VWS V14.01,2013-10-23 16:04:00,
2013-10-23 12:09:00,58.5,19.8,29.71,WNW,285,0.0,0.0,22,0.00,,---,0.00,VWS V14.01,2013-10-23 16:09:00,
2013-10-23 12:14:00,58.3,17.4,29.71,North,1,0.0,0.0,20,0.00,,---,0.00,VWS V14.01,2013-10-23 16:14:00,
2013-10-23 12:20:00,58.1,17.3,29.71,NNW,348,0.0,0.0,20,0.00,,---,0.00,VWS V14.01,2013-10-23 16:20:00,
2013-10-23 12:26:00,57.9,17.1,29.71,NNW,343,0.0,0.0,20,0.00,,---,0.00,VWS V14.01,2013-10-23 16:26:00,
2013-10-23 12:31:00,57.9,19.3,29.71,NNW,343,0.0,0.0,22,0.00,,---,0.00,VWS V14.01,2013-10-23 16:31:00,
2013-10-23 12:37:00,57.9,19.3,29.71,WNW,300,0.0,0.0,22,0.00,,---,0.00,VWS V14.01,2013-10-23 16:37:00,
2013-10-23 12:42:00,57.9,19.3,29.71,North,353,0.0,0.0,22,0.00,,---,0.00,VWS V14.01,2013-10-23 16:42:00,
2013-10-23 12:47:00,58.3,19.6,29.71,NNW,332,0.0,0.0,22,0.00,,---,0.00,VWS V14.01,2013-10-23 16:47:00,
2013-10-23 12:52:00,58.3,19.6,29.68,North,1,0.0,0.0,22,0.00,,---,0.00,VWS V14.01,2013-10-23 16:52:00,
2013-10-23 12:57:00,58.3,19.6,29.68,North,2,0.0,0.0,22,0.00,,---,0.00,VWS V14.01,2013-10-23 16:57:00,
2013-10-23 13:02:00,58.1,17.3,29.68,North,1,0.0,0.0,20,0.00,,---,0.00,VWS V14.01,2013-10-23 17:02:00,
2013-10-23 13:08:00,58.1,19.5,29.68,NW,317,0.0,0.0,22,0.00,,---,0.00,VWS V14.01,2013-10-23 17:08:00,
2013-10-23 13:14:00,58.8,20.1,29.68,NW,315,0.0,0.0,22,0.00,,---,0.00,VWS V14.01,2013-10-23 17:14:00,
2013-10-23 13:20:00,58.8,17.9,29.68,NNE,22,0.0,0.0,20,0.00,,---,0.00,VWS V14.01,2013-10-23 17:20:00,
2013-10-23 13:25:00,58.5,17.6,29.68,NNW,337,0.0,0.0,20,0.00,,---,0.00,VWS V14.01,2013-10-23 17:25:00,
2013-10-23 13:30:00,58.1,17.3,29.68,NW,324,0.0,0.0,20,0.00,,---,0.00,VWS V14.01,2013-10-23 17:30:00,
2013-10-23 13:35:00,57.7,17.0,29.65,NNW,330,0.0,0.0,20,0.00,,---,0.00,VWS V14.01,2013-10-23 17:35:00,
2013-10-23 13:41:00,57.4,18.9,29.65,NW,314,0.0,0.0,22,0.00,,---,0.00,VWS V14.01,2013-10-23 17:41:00,
2013-10-23 13:47:00,56.8,19.5,29.65,NNE,32,0.0,0.0,23,0.00,,---,0.00,VWS V14.01,2013-10-23 17:47:00,
2013-10-23 13:52:00,56.7,19.3,29.65,North,3,0.0,0.0,23,0.00,,---,0.00,VWS V14.01,2013-10-23 17:52:00,
2013-10-23 13:58:00,56.5,19.1,29.65,NNW,339,0.0,0.0,23,0.00,,---,0.00,VWS V14.01,2013-10-23 17:58:00,
2013-10-23 14:03:00,56.5,19.1,29.65,North,353,0.0,0.0,23,0.00,,---,0.00,VWS V14.01,2013-10-23 18:03:00,
2013-10-23 14:09:00,56.5,19.1,29.65,WNW,300,0.0,0.0,23,0.00,,---,0.00,VWS V14.01,2013-10-23 18:09:00,
2013-10-23 14:15:00,56.1,18.9,29.65,NW,315,0.0,0.0,23,0.00,,---,0.00,VWS V14.01,2013-10-23 18:15:00,
2013-10-23 14:20:00,55.9,18.7,29.65,NNE,23,0.0,0.0,23,0.00,,---,0.00,VWS V14.01,2013-10-23 18:20:00,
2013-10-23 14:26:00,55.8,20.5,29.65,NNW,341,0.0,0.0,25,0.00,,---,0.00,VWS V14.01,2013-10-23 18:26:00,
2013-10-23 14:32:00,55.4,20.2,29.65,NNW,345,0.0,0.0,25,0.00,,---,0.00,VWS V14.01,2013-10-23 18:32:00,
2013-10-23 14:37:00,55.2,21.0,29.62,NNE,19,0.0,0.0,26,0.00,,---,0.00,VWS V14.01,2013-10-23 18:37:00,
2013-10-23 14:43:00,55.0,20.8,29.62,NE,36,0.0,0.0,26,0.00,,---,0.00,VWS V14.01,2013-10-23 18:43:00,
2013-10-23 14:48:00,54.9,22.4,29.62,NNW,341,0.0,0.0,28,0.00,,---,0.00,VWS V14.01,2013-10-23 18:48:00,
2013-10-23 14:53:00,54.9,22.4,29.62,NW,325,0.0,0.0,28,0.00,,---,0.00,VWS V14.01,2013-10-23 18:53:00,
2013-10-23 14:58:00,54.9,22.4,29.62,NNE,13,0.0,0.0,28,0.00,,---,0.00,VWS V14.01,2013-10-23 18:58:00,
2013-10-23 15:04:00,54.7,22.2,29.62,NW,320,0.0,0.0,28,0.00,,---,0.00,VWS V14.01,2013-10-23 19:04:00,
2013-10-23 15:09:00,54.7,23.1,29.62,North,357,0.0,0.0,29,0.00,,---,0.00,VWS V14.01,2013-10-23 19:09:00,
2013-10-23 15:15:00,54.7,23.1,29.62,NNW,340,0.0,0.0,29,0.00,,---,0.00,VWS V14.01,2013-10-23 19:15:00,
2013-10-23 15:21:00,54.5,22.9,29.62,NW,309,0.0,0.0,29,0.00,,---,0.00,VWS V14.01,2013-10-23 19:21:00,
2013-10-23 15:26:00,54.5,23.7,29.62,North,353,0.0,0.0,30,0.00,,---,0.00,VWS V14.01,2013-10-23 19:26:00,
2013-10-23 15:31:00,54.3,23.6,29.62,NNE,16,0.0,0.0,30,0.00,,---,0.00,VWS V14.01,2013-10-23 19:31:00,
2013-10-23 15:36:00,54.1,23.4,29.62,North,357,0.0,0.0,30,0.00,,---,0.00,VWS V14.01,2013-10-23 19:36:00,
2013-10-23 15:42:00,54.0,24.0,29.62,NNW,338,0.0,0.0,31,0.00,,---,0.00,VWS V14.01,2013-10-23 19:42:00,
2013-10-23 15:47:00,54.0,24.0,29.62,North,353,0.0,0.0,31,0.00,,---,0.00,VWS V14.01,2013-10-23 19:47:00,
2013-10-23 15:53:00,54.0,24.0,29.59,NNE,16,0.0,0.0,31,0.00,,---,0.00,VWS V14.01,2013-10-23 19:53:00,
2013-10-23 15:58:00,54.0,24.0,29.59,North,1,0.0,0.0,31,0.00,,---,0.00,VWS V14.01,2013-10-23 19:58:00,
2013-10-23 16:04:00,53.8,23.1,29.62,WNW,285,0.0,0.0,30,0.00,,---,0.00,VWS V14.01,2013-10-23 20:04:00,
2013-10-23 16:09:00,53.8,23.1,29.62,North,9,0.0,0.0,30,0.00,,---,0.00,VWS V14.01,2013-10-23 20:09:00,
2013-10-23 16:15:00,54.0,23.2,29.62,North,353,0.0,0.0,30,0.00,,---,0.00,VWS V14.01,2013-10-23 20:15:00,
2013-10-23 16:21:00,54.0,22.5,29.59,NNW,341,0.0,0.0,29,0.00,,---,0.00,VWS V14.01,2013-10-23 20:21:00,
2013-10-23 16:26:00,54.0,22.5,29.59,NNE,21,0.0,0.0,29,0.00,,---,0.00,VWS V14.01,2013-10-23 20:26:00,
2013-10-23 16:32:00,53.8,22.3,29.59,WNW,301,0.0,0.0,29,0.00,,---,0.00,VWS V14.01,2013-10-23 20:32:00,
2013-10-23 16:38:00,53.6,22.9,29.62,North,1,0.0,0.0,30,0.00,,---,0.00,VWS V14.01,2013-10-23 20:38:00,
2013-10-23 16:43:00,53.4,22.8,29.62,NNE,23,0.0,0.0,30,0.00,,---,0.00,VWS V14.01,2013-10-23 20:43:00,
2013-10-23 16:49:00,53.4,23.6,29.62,NNW,338,0.0,0.0,31,0.00,,---,0.00,VWS V14.01,2013-10-23 20:49:00,
2013-10-23 16:54:00,53.6,24.5,29.62,NNW,335,0.0,0.0,32,0.00,,---,0.00,VWS V14.01,2013-10-23 20:54:00,
2013-10-23 17:00:00,53.4,25.8,29.62,NNW,343,0.0,0.0,34,0.00,,---,0.00,VWS V14.01,2013-10-23 21:00:00,
2013-10-23 17:06:00,53.1,25.5,29.62,NW,317,0.0,0.0,34,0.00,,---,0.00,VWS V14.01,2013-10-23 21:06:00,
2013-10-23 17:11:00,52.9,26.7,29.62,NW,310,0.0,0.0,36,0.00,,---,0.00,VWS V14.01,2013-10-23 21:11:00,
2013-10-23 17:17:00,52.5,26.4,29.62,WNW,289,2.6,3.1,36,0.00,,---,0.00,VWS V14.01,2013-10-23 21:17:00,
2013-10-23 17:22:00,52.3,28.1,29.62,WNW,297,0.0,0.0,39,0.00,,---,0.00,VWS V14.01,2013-10-23 21:22:00,
2013-10-23 17:28:00,52.2,28.6,29.62,NW,311,3.6,3.6,40,0.00,,---,0.00,VWS V14.01,2013-10-23 21:28:00,
2013-10-23 17:34:00,51.8,31.1,29.62,NW,304,0.0,5.1,45,0.00,,---,0.00,VWS V14.01,2013-10-23 21:34:00,
2013-10-23 17:39:00,51.6,31.5,29.62,WNW,299,3.6,3.6,46,0.00,,---,0.00,VWS V14.01,2013-10-23 21:39:00,
2013-10-23 17:44:00,51.4,33.4,29.62,WNW,297,0.0,0.0,50,0.00,,---,0.00,VWS V14.01,2013-10-23 21:44:00,
2013-10-23 17:49:00,51.4,34.4,29.62,WNW,300,0.0,0.0,52,0.00,,---,0.00,VWS V14.01,2013-10-23 21:49:00,
2013-10-23 17:55:00,51.3,35.2,29.62,NW,311,0.0,0.0,54,0.00,,---,0.00,VWS V14.01,2013-10-23 21:55:00,
2013-10-23 18:00:00,51.1,36.0,29.62,West,276,0.0,0.0,56,0.00,,---,0.00,VWS V14.01,2013-10-23 22:00:00,
2013-10-23 18:06:00,51.1,37.3,29.62,WNW,294,0.0,0.0,59,0.00,,---,0.00,VWS V14.01,2013-10-23 22:06:00,
2013-10-23 18:11:00,51.3,38.3,29.62,WNW,297,0.0,6.7,61,0.00,,---,0.00,VWS V14.01,2013-10-23 22:11:00,
2013-10-23 18:17:00,51.3,39.9,29.62,WNW,302,2.6,6.2,65,0.00,,---,0.00,VWS V14.01,2013-10-23 22:17:00,
2013-10-23 18:22:00,51.1,40.1,29.59,NW,307,0.0,0.0,66,0.00,,---,0.00,VWS V14.01,2013-10-23 22:22:00,
2013-10-23 18:27:00,50.9,40.0,29.59,NNW,345,0.0,0.0,66,0.00,,---,0.00,VWS V14.01,2013-10-23 22:27:00,
2013-10-23 18:32:00,50.5,40.0,29.59,NW,307,5.7,6.2,67,0.00,,---,0.00,VWS V14.01,2013-10-23 22:32:00,
2013-10-23 18:38:00,50.5,40.0,29.62,NNW,341,0.0,0.0,67,0.00,,---,0.00,VWS V14.01,2013-10-23 22:38:00,
2013-10-23 18:44:00,50.2,39.3,29.62,WNW,301,0.0,0.0,66,0.00,,---,0.00,VWS V14.01,2013-10-23 22:44:00,
2013-10-23 18:49:00,50.2,39.3,29.62,NW,308,0.0,0.0,66,0.00,,---,0.00,VWS V14.01,2013-10-23 22:49:00,
2013-10-23 18:55:00,50.2,38.9,29.62,NW,305,0.0,0.0,65,0.00,,---,0.00,VWS V14.01,2013-10-23 22:55:00,
2013-10-23 19:00:00,50.0,38.7,29.62,NW,310,0.0,0.0,65,0.00,,---,0.00,VWS V14.01,2013-10-23 23:00:00,
2013-10-23 19:06:00,49.8,38.9,29.65,WNW,300,0.0,0.0,66,0.00,,---,0.00,VWS V14.01,2013-10-23 23:06:00,
2013-10-23 19:12:00,49.6,38.8,29.65,WNW,290,0.0,4.6,66,0.00,,---,0.00,VWS V14.01,2013-10-23 23:12:00,
2013-10-23 19:17:00,49.6,38.8,29.65,NW,322,0.0,0.0,66,0.00,,---,0.00,VWS V14.01,2013-10-23 23:17:00,
2013-10-23 19:23:00,49.6,39.2,29.65,WNW,298,0.0,0.0,67,0.00,,---,0.00,VWS V14.01,2013-10-23 23:23:00,
2013-10-23 19:28:00,49.5,39.0,29.65,WNW,298,0.0,0.0,67,0.00,,---,0.00,VWS V14.01,2013-10-23 23:28:00,
2013-10-23 19:33:00,49.5,39.0,29.65,WNW,299,0.0,0.0,67,0.00,,---,0.00,VWS V14.01,2013-10-23 23:33:00,
2013-10-23 19:38:00,49.5,39.3,29.65,WNW,302,0.0,0.0,68,0.00,,---,0.00,VWS V14.01,2013-10-23 23:38:00,
2013-10-23 19:44:00,49.6,39.5,29.65,NW,316,0.0,0.0,68,0.00,,---,0.00,VWS V14.01,2013-10-23 23:44:00,
2013-10-23 19:50:00,49.5,39.3,29.65,NW,312,0.0,3.1,68,0.00,,---,0.00,VWS V14.01,2013-10-23 23:50:00,
2013-10-23 19:55:00,49.5,39.3,29.65,WNW,297,0.0,0.0,68,0.00,,---,0.00,VWS V14.01,2013-10-23 23:55:00,
2013-10-23 20:01:00,49.3,39.2,29.65,WNW,284,0.0,0.0,68,0.00,,---,0.00,VWS V14.01,2013-10-24 00:01:00,
2013-10-23 20:06:00,49.3,39.5,29.65,NW,311,0.0,4.1,69,0.00,,---,0.00,VWS V14.01,2013-10-24 00:06:00,
2013-10-23 20:12:00,49.1,39.4,29.65,NW,316,3.6,6.2,69,0.00,,---,0.00,VWS V14.01,2013-10-24 00:12:00,
2013-10-23 20:17:00,48.9,39.6,29.65,NW,316,3.1,3.1,70,0.00,,---,0.00,VWS V14.01,2013-10-24 00:17:00,
2013-10-23 20:23:00,48.9,39.6,29.65,WNW,301,3.6,3.6,70,0.00,,---,0.00,VWS V14.01,2013-10-24 00:23:00,
2013-10-23 20:28:00,49.1,40.1,29.65,NW,306,0.0,0.0,71,0.00,,---,0.00,VWS V14.01,2013-10-24 00:28:00,
2013-10-23 20:34:00,48.9,39.9,29.65,NNW,335,4.1,4.6,71,0.00,,---,0.00,VWS V14.01,2013-10-24 00:34:00,
2013-10-23 20:39:00,48.7,39.8,29.65,NW,307,5.1,5.1,71,0.00,,---,0.00,VWS V14.01,2013-10-24 00:39:00,
2013-10-23 20:44:00,48.6,39.6,29.65,NNW,332,4.1,6.2,71,0.00,,---,0.00,VWS V14.01,2013-10-24 00:44:00,
2013-10-23 20:50:00,48.6,39.6,29.65,NW,314,0.0,4.6,71,0.00,,---,0.00,VWS V14.01,2013-10-24 00:50:00,
2013-10-23 20:55:00,48.6,39.6,29.65,WNW,297,3.1,6.7,71,0.00,,---,0.00,VWS V14.01,2013-10-24 00:55:00,
2013-10-23 21:01:00,48.6,40.0,29.65,North,6,4.6,4.6,72,0.00,,---,0.00,VWS V14.01,2013-10-24 01:01:00,
2013-10-23 21:06:00,48.6,40.0,29.65,NW,322,3.1,3.1,72,0.00,,---,0.00,VWS V14.01,2013-10-24 01:06:00,
2013-10-23 21:12:00,48.4,39.8,29.65,NNW,341,0.0,4.6,72,0.00,,---,0.00,VWS V14.01,2013-10-24 01:12:00,
2013-10-23 21:18:00,48.2,39.6,29.65,WNW,285,3.1,3.6,72,0.00,,---,0.00,VWS V14.01,2013-10-24 01:18:00,
2013-10-23 21:23:00,48.2,39.6,29.62,North,353,6.7,6.7,72,0.00,,---,0.00,VWS V14.01,2013-10-24 01:23:00,
2013-10-23 21:29:00,48.2,39.6,29.62,WNW,299,3.1,3.6,72,0.00,,---,0.00,VWS V14.01,2013-10-24 01:29:00,
2013-10-23 21:35:00,48.2,39.6,29.65,WSW,255,3.6,5.7,72,0.00,,---,0.00,VWS V14.01,2013-10-24 01:35:00,
2013-10-23 21:40:00,48.0,39.8,29.65,NW,304,6.7,6.7,73,0.00,,---,0.00,VWS V14.01,2013-10-24 01:40:00,
2013-10-23 21:45:00,48.2,39.6,29.65,NW,316,0.0,0.0,72,0.00,,---,0.00,VWS V14.01,2013-10-24 01:45:00,
2013-10-23 21:51:00,48.2,40.0,29.62,NW,315,0.0,2.6,73,0.00,,---,0.00,VWS V14.01,2013-10-24 01:51:00,
2013-10-23 21:57:00,48.0,39.8,29.62,NW,305,0.0,3.1,73,0.00,,---,0.00,VWS V14.01,2013-10-24 01:57:00,
2013-10-23 22:02:00,48.0,39.8,29.62,WNW,288,0.0,3.6,73,0.00,,---,0.00,VWS V14.01,2013-10-24 02:02:00,
2013-10-23 22:08:00,47.8,39.6,29.65,NW,320,4.1,4.1,73,0.00,,---,0.00,VWS V14.01,2013-10-24 02:08:00,
2013-10-23 22:14:00,47.8,39.6,29.65,WNW,300,0.0,3.1,73,0.00,,---,0.00,VWS V14.01,2013-10-24 02:14:00,
2013-10-23 22:19:00,47.8,39.6,29.65,NW,314,0.0,0.0,73,0.00,,---,0.00,VWS V14.01,2013-10-24 02:19:00,
2013-10-23 22:25:00,47.8,39.6,29.65,WNW,298,0.0,0.0,73,0.00,,---,0.00,VWS V14.01,2013-10-24 02:25:00,
2013-10-23 22:30:00,47.8,39.6,29.65,WNW,293,0.0,0.0,73,0.00,,---,0.00,VWS V14.01,2013-10-24 02:30:00,
2013-10-23 22:36:00,47.8,39.6,29.62,NW,312,0.0,0.0,73,0.00,,---,0.00,VWS V14.01,2013-10-24 02:36:00,
2013-10-23 22:41:00,47.7,39.4,29.62,NW,304,0.0,0.0,73,0.00,,---,0.00,VWS V14.01,2013-10-24 02:41:00,
2013-10-23 22:47:00,47.8,39.6,29.62,WNW,288,0.0,0.0,73,0.00,,---,0.00,VWS V14.01,2013-10-24 02:47:00,
2013-10-23 22:53:00,47.8,39.6,29.65,NW,306,0.0,0.0,73,0.00,,---,0.00,VWS V14.01,2013-10-24 02:53:00,
2013-10-23 22:58:00,47.8,39.6,29.65,WNW,303,0.0,0.0,73,0.00,,---,0.00,VWS V14.01,2013-10-24 02:58:00,
2013-10-23 23:04:00,48.0,39.8,29.65,WNW,303,0.0,0.0,73,0.00,,---,0.00,VWS V14.01,2013-10-24 03:04:00,
2013-10-23 23:10:00,48.0,39.8,29.65,WNW,290,0.0,0.0,73,0.00,,---,0.00,VWS V14.01,2013-10-24 03:10:00,
2013-10-23 23:16:00,47.8,39.6,29.65,WNW,290,0.0,0.0,73,0.00,,---,0.00,VWS V14.01,2013-10-24 03:16:00,
2013-10-23 23:22:00,47.8,39.6,29.65,WNW,298,0.0,0.0,73,0.00,,---,0.00,VWS V14.01,2013-10-24 03:22:00,
2013-10-23 23:28:00,47.8,39.6,29.65,WNW,299,0.0,0.0,73,0.00,,---,0.00,VWS V14.01,2013-10-24 03:28:00,
2013-10-23 23:33:00,47.8,39.6,29.65,WNW,292,0.0,0.0,73,0.00,,---,0.00,VWS V14.01,2013-10-24 03:33:00,
2013-10-23 23:39:00,48.0,39.8,29.65,WNW,286,0.0,0.0,73,0.00,,---,0.00,VWS V14.01,2013-10-24 03:39:00,
2013-10-23 23:44:00,48.0,39.8,29.65,WNW,286,0.0,0.0,73,0.00,,---,0.00,VWS V14.01,2013-10-24 03:44:00,
2013-10-23 23:50:00,48.0,39.8,29.62,WNW,287,0.0,0.0,73,0.00,,---,0.00,VWS V14.01,2013-10-24 03:50:00,
2013-10-23 23:56:00,48.0,39.8,29.62,WNW,286,0.0,0.0,73,0.00,,---,0.00,VWS V14.01,2013-10-24 03:56:00,